Location: Piotrkow Trybunalski
(51.4000°N, 19.6830°E)
Time: 10:41:43
(UTC+01:00)

SR - Visible Passes

Search period start: 31 January 2023 00:00
Search period end: 10 February 2023 00:00
Orbit: 581 x 870 km, 66.7° (Epoch: 30 January)

Date Brightness Start Highest point End Pass type
(mag) Time Alt. Az. Time Alt. Az. Time Alt. Az.
31 Jan ? 18:14:57 10° NW 18:17:39 15° NNW 18:20:16 10° NNE visible
31 Jan ? 19:59:42 10° NNW 19:59:56 10° NNW 19:59:56 10° NNW visible
01 Feb ? 17:23:09 10° WNW 17:26:39 19° NNW 17:29:57 10° NNE visible
01 Feb ? 19:08:46 10° NNW 19:10:25 12° N 19:10:50 12° N visible
02 Feb ? 18:17:13 10° NW 18:19:15 13° N 18:21:15 10° NNE visible
02 Feb ? 20:00:49 10° NNW 20:01:04 11° NNW 20:01:04 11° NNW visible
03 Feb ? 17:25:22 10° NW 17:28:09 15° NNW 17:30:49 10° NNE visible
03 Feb ? 19:10:18 10° NNW 19:11:58 12° N 19:11:58 12° N visible
04 Feb ? 18:19:16 10° NNW 18:20:53 12° N 18:22:28 10° NNE visible
04 Feb ? 20:01:46 10° NNW 20:02:13 12° NNW 20:02:13 12° NNW visible
05 Feb ? 17:27:38 10° NW 17:29:44 13° NNW 17:31:46 10° NNE visible
05 Feb ? 19:11:27 10° NNW 19:13:07 13° N 19:13:07 13° N visible
06 Feb ? 18:20:53 10° NNW 18:22:31 12° N 18:24:01 10° NNE visible
06 Feb ? 20:02:40 10° NNW 20:03:22 13° NNW 20:03:22 13° NNW visible
07 Feb ? 17:29:44 10° NNW 17:31:21 12° N 17:32:55 10° NNE visible
07 Feb ? 19:12:24 10° NNW 19:14:17 15° N 19:14:17 15° N visible
08 Feb ? 18:22:03 10° NNW 18:24:07 13° NNE 18:25:14 12° NNE visible
08 Feb ? 20:03:33 10° NNW 20:04:35 16° NNW 20:04:35 16° NNW visible
09 Feb ? 17:31:26 10° NNW 17:32:58 11° N 17:34:29 10° NNE visible
09 Feb ? 19:13:16 10° NNW 19:15:32 19° N 19:15:32 19° N visible
09 Feb ? 20:54:53 10° NW 20:54:53 10° NW 20:54:53 10° NW visible
